DW7098 Weather Reports


time (UTC)temp
C
wind
direction
speed
KPH
gust
KPH
rain 1hr
cm
rain 24hr
cm
rain mn
cm
humidity
%
barometer
mb
20260902093043 15 53 0.0 1.6 0.00 0.00 0.00
20260902090050 15 91 0.0 4.8 0.00 0.00 0.00
20260902083033 15 70 3.2 4.8 0.00 0.00 0.00
20260902080059 15 76 3.2 6.4 0.00 0.00 0.00
20260902073041 15 93 0.0 3.2 0.00 0.00 0.00
20260902070109 15 56 0.0 1.6 0.00 0.00 0.00
20260902063044 15 70 0.0 3.2 0.00 0.00 0.00
20260902060055 15 237 0.0 0.0 0.00 0.00 0.00
20260902050107 15 42 0.0 1.6 0.00 0.00 0.00
20260902043048 15 292 0.0 1.6 0.00 0.00 0.00
20260902040100 15 231 0.0 1.6 0.00 0.00 0.00
20260902033037 15 249 0.0 1.6 0.00 0.00 0.00
20260902023031 16 165 0.0 4.8 0.00 0.00 0.00
20260902020104 16 298 0.0 6.4 0.00 0.00 0.00
20260902013044 16 192 1.6 9.7 0.00 0.00 0.00
20260902010113 16 214 1.6 6.4 0.00 0.00 0.00
20260902000103 17 219 1.6 6.4 0.00 0.00 0.00
20260901233046 17 250 0.0 9.7 0.00 0.00 0.00
20260901230053 17 227 0.0 8.0 0.00 0.00 0.00
20260901223034 16 73 0.0 4.8 0.00 0.00 0.00
20260901213049 17 251 0.0 1.6 0.00 0.00 0.00
20260901210100 17 190 0.0 1.6 0.00 0.00 0.00
20260901203040 17 243 3.2 6.4 0.00 0.00 0.00
20260901193034 17 204 0.0 4.8 0.00 0.00 0.00
20260901183045 17 255 3.2 12.9 0.00 0.00 0.00
20260901180056 17 180 1.6 9.7 0.00 0.00 0.00
20260901170108 16 216 1.6 6.4 0.00 0.00 0.00
20260901160101 16 265 1.6 4.8 0.00 0.00 0.00
20260901153040 16 217 0.0 8.0 0.00 0.00 0.00
20260901150111 16 171 0.0 3.2 0.00 0.00 0.00
20260901143047 15 232 0.0 6.4 0.00 0.00 0.00
20260901133039 15 258 3.2 8.0 0.00 0.00 0.00
20260901130111 15 234 0.0 6.4 0.00 0.00 0.00
20260901120104 15 250 0.0 8.0 0.00 0.00 0.00
20260901110055 15 261 1.6 8.0 0.00 0.00 0.00
20260901103035 15 271 1.6 8.0 0.00 0.00 0.00